GFSWCAN_500_temp_228.txt.gz
Temp
-22 -23 -24 -25 -25 -26 -27 -28 -29 -29 -29 -30 -29 -30 -30 -30 -30 -30 -30 -30 -31 -30 -30 -30 -30 -29 -29 -28 -27 -27 -27 -27 -26 -26 -25 -25 -24 -23 -23 -22 -21 -22 -22 -22 -21 -21 -19 -20 -20 -20 -19 -20 -20 -20
-25 -25 -27 -28 -29 -30 -31 -31 -31 -31 -32 -32 -32 -31 -32 -32 -31 -32 -32 -32 -33 -32 -32 -31 -31 -31 -30 -30 -29 -28 -28 -27 -27 -27 -27 -26 -25 -24 -24 -23 -23 -23 -22 -22 -22 -21 -20 -21 -21 -21 -21 -21 -21 -21
-29 -31 -32 -32 -32 -33 -33 -32 -32 -32 -33 -33 -33 -33 -33 -33 -33 -33 -33 -33 -33 -33 -33 -33 -32 -32 -32 -31 -31 -30 -29 -28 -28 -28 -27 -26 -26 -25 -24 -24 -24 -24 -24 -24 -23 -22 -22 -21 -22 -22 -22 -22 -22 -22
-32 -33 -34 -34 -34 -34 -33 -33 -33 -33 -33 -33 -34 -34 -34 -34 -33 -33 -33 -33 -33 -33 -32 -34 -35 -34 -34 -33 -32 -31 -30 -29 -28 -28 -28 -28 -27 -26 -26 -25 -25 -25 -24 -24 -24 -23 -23 -23 -22 -22 -23 -22 -22 -23
-34 -35 -35 -35 -35 -35 -35 -34 -34 -33 -34 -35 -35 -35 -34 -34 -34 -33 -33 -33 -33 -33 -32 -34 -35 -35 -35 -34 -33 -32 -31 -30 -29 -29 -28 -28 -28 -27 -26 -25 -25 -25 -25 -24 -25 -24 -24 -24 -24 -24 -24 -24 -24 -24
-35 -36 -36 -36 -35 -35 -35 -35 -35 -35 -35 -36 -36 -35 -35 -35 -34 -34 -34 -34 -34 -34 -33 -35 -35 -35 -35 -35 -34 -33 -33 -32 -31 -30 -29 -29 -28 -28 -26 -26 -25 -25 -25 -25 -25 -24 -25 -25 -24 -24 -24 -24 -24 -24
-35 -36 -36 -36 -36 -35 -35 -36 -36 -36 -36 -36 -36 -36 -36 -35 -35 -34 -34 -34 -34 -34 -34 -35 -35 -35 -36 -35 -34 -34 -34 -34 -33 -32 -31 -30 -29 -29 -27 -27 -26 -26 -25 -25 -25 -25 -25 -25 -25 -24 -25 -25 -25 -25
-36 -36 -36 -36 -36 -36 -36 -36 -36 -36 -36 -36 -36 -36 -36 -36 -36 -35 -35 -35 -35 -35 -35 -36 -36 -35 -35 -35 -35 -35 -34 -34 -33 -33 -33 -32 -31 -30 -29 -28 -27 -27 -27 -26 -26 -26 -25 -25 -25 -25 -25 -25 -25 -25
-36 -36 -36 -36 -36 -35 -35 -36 -36 -36 -36 -37 -37 -37 -36 -36 -36 -36 -36 -36 -36 -36 -36 -36 -36 -35 -35 -35 -35 -35 -34 -34 -34 -33 -33 -33 -33 -32 -31 -30 -29 -29 -28 -27 -27 -27 -26 -26 -26 -26 -26 -25 -25 -26
-36 -36 -36 -36 -35 -35 -36 -36 -37 -37 -37 -37 -37 -37 -36 -36 -36 -37 -37 -37 -37 -37 -36 -36 -36 -35 -35 -35 -35 -34 -35 -34 -33 -33 -33 -33 -33 -32 -32 -32 -32 -31 -30 -30 -29 -28 -27 -27 -27 -27 -26 -26 -26 -26
-36 -36 -36 -36 -37 -37 -37 -37 -37 -37 -37 -37 -37 -37 -37 -37 -37 -37 -37 -37 -37 -36 -36 -36 -36 -35 -35 -35 -35 -35 -35 -34 -34 -33 -33 -33 -32 -32 -32 -32 -32 -31 -31 -30 -30 -29 -29 -28 -28 -27 -27 -27 -27 -27
-36 -36 -36 -37 -37 -37 -37 -37 -37 -37 -37 -37 -37 -37 -37 -37 -37 -37 -37 -37 -37 -37 -37 -37 -36 -36 -36 -35 -35 -35 -35 -34 -34 -34 -33 -33 -33 -32 -32 -32 -32 -31 -31 -31 -30 -30 -29 -29 -28 -28 -28 -28 -28 -28
-36 -37 -37 -37 -37 -37 -37 -37 -37 -37 -36 -37 -37 -37 -37 -37 -37 -37 -37 -37 -37 -37 -37 -37 -37 -36 -36 -36 -35 -35 -35 -34 -34 -34 -34 -34 -33 -33 -33 -33 -32 -32 -32 -32 -31 -31 -31 -30 -30 -30 -30 -30 -30 -29
-36 -36 -36 -36 -36 -36 -36 -36 -36 -36 -36 -37 -37 -37 -37 -37 -37 -37 -37 -37 -37 -37 -37 -37 -37 -37 -36 -36 -36 -35 -35 -34 -34 -34 -34 -34 -34 -34 -34 -33 -33 -33 -33 -33 -33 -32 -32 -32 -31 -31 -31 -31 -30 -30
-35 -35 -35 -36 -36 -36 -36 -36 -36 -36 -36 -36 -36 -37 -37 -37 -37 -37 -37 -37 -36 -36 -36 -36 -36 -36 -36 -36 -36 -36 -35 -35 -35 -34 -34 -34 -34 -34 -34 -34 -34 -34 -33 -33 -33 -32 -32 -32 -32 -32 -31 -31 -31 -31
-35 -35 -36 -36 -36 -36 -36 -36 -36 -36 -36 -36 -36 -36 -37 -37 -37 -37 -37 -36 -36 -36 -36 -36 -36 -36 -36 -36 -36 -36 -36 -35 -35 -35 -35 -35 -35 -35 -35 -34 -34 -34 -34 -33 -33 -33 -33 -32 -32 -32 -32 -32 -31 -31
-35 -36 -36 -36 -36 -36 -36 -36 -36 -36 -36 -36 -36 -36 -36 -37 -37 -37 -37 -37 -37 -36 -36 -36 -36 -36 -36 -36 -36 -36 -36 -36 -36 -36 -35 -35 -35 -35 -35 -35 -34 -34 -34 -34 -33 -33 -33 -33 -33 -32 -32 -32 -32 -32
-35 -36 -36 -36 -36 -36 -37 -36 -36 -36 -36 -36 -36 -36 -37 -37 -37 -37 -37 -37 -37 -36 -36 -37 -36 -36 -36 -36 -36 -36 -36 -36 -36 -36 -36 -36 -36 -36 -35 -35 -35 -35 -34 -34 -34 -34 -34 -34 -33 -33 -33 -33 -33 -33
-35 -36 -36 -36 -36 -36 -36 -36 -36 -36 -36 -37 -37 -36 -37 -37 -37 -37 -37 -37 -36 -36 -37 -37 -37 -36 -36 -36 -36 -36 -36 -36 -36 -36 -36 -36 -36 -36 -36 -36 -35 -35 -35 -35 -35 -35 -35 -34 -34 -34 -34 -34 -34 -34
-36 -36 -36 -36 -36 -36 -36 -36 -36 -36 -37 -37 -37 -36 -37 -37 -37 -37 -37 -37 -37 -37 -37 -37 -36 -36 -36 -36 -36 -36 -36 -36 -36 -36 -36 -36 -36 -36 -36 -36 -36 -35 -35 -35 -35 -35 -35 -35 -34 -34 -34 -34 -34 -33
-35 -36 -36 -36 -36 -36 -36 -36 -36 -36 -36 -36 -36 -36 -37 -37 -37 -37 -37 -37 -37 -37 -36 -36 -36 -36 -36 -36 -36 -36 -36 -36 -36 -36 -36 -36 -36 -36 -36 -36 -36 -36 -35 -35 -35 -35 -35 -35 -34 -34 -34 -34 -34 -33
-35 -35 -35 -35 -36 -36 -36 -36 -36 -36 -36 -36 -36 -36 -36 -37 -37 -37 -37 -37 -37 -36 -36 -36 -36 -36 -36 -36 -36 -36 -36 -36 -36 -37 -37 -36 -36 -36 -36 -36 -36 -35 -35 -35 -35 -35 -34 -34 -34 -34 -34 -34 -33 -33
-34 -34 -35 -35 -35 -35 -35 -35 -36 -36 -36 -36 -36 -36 -36 -36 -36 -36 -36 -36 -36 -36 -36 -36 -36 -36 -36 -36 -36 -36 -37 -37 -37 -37 -37 -37 -37 -37 -37 -36 -36 -36 -36 -35 -35 -35 -35 -34 -34 -34 -34 -34 -34 -33
-33 -34 -34 -34 -34 -35 -35 -35 -35 -35 -35 -35 -35 -35 -35 -35 -35 -35 -35 -35 -36 -36 -35 -35 -36 -36 -36 -36 -36 -36 -36 -36 -36 -36 -37 -37 -37 -37 -37 -36 -36 -36 -36 -36 -36 -35 -35 -35 -35 -34 -34 -34 -34 -34
-32 -33 -33 -33 -34 -34 -34 -34 -34 -34 -34 -34 -34 -34 -34 -34 -34 -34 -34 -34 -34 -35 -35 -35 -35 -35 -35 -35 -35 -35 -35 -36 -36 -36 -36 -36 -37 -37 -37 -37 -37 -37 -36 -36 -36 -36 -36 -35 -35 -35 -35 -35 -35 -35
-31 -31 -32 -32 -32 -32 -33 -33 -33 -33 -33 -33 -33 -33 -33 -33 -34 -34 -34 -34 -34 -34 -34 -34 -35 -35 -35 -35 -35 -35 -35 -35 -35 -35 -36 -36 -37 -37 -37 -38 -38 -38 -37 -37 -37 -36 -36 -36 -36 -35 -35 -35 -35 -35
-32 -32 -32 -32 -32 -32 -32 -32 -33 -33 -33 -33 -33 -33 -33 -33 -34 -34 -34 -34 -34 -34 -34 -35 -35 -35 -35 -35 -35 -35 -35 -35 -36 -36 -36 -36 -36 -36 -37 -38 -38 -38 -39 -39 -38 -38 -38 -37 -36 -36 -36 -35 -35 -35
-32 -33 -33 -33 -33 -33 -33 -33 -33 -33 -33 -33 -33 -34 -34 -34 -34 -34 -34 -34 -34 -35 -35 -35 -35 -35 -35 -35 -35 -36 -36 -36 -36 -36 -36 -36 -36 -36 -36 -37 -38 -39 -39 -39 -39 -39 -39 -38 -38 -37 -36 -36 -36 -36
-33 -33 -33 -33 -33 -33 -33 -34 -34 -34 -34 -34 -34 -34 -34 -34 -34 -35 -35 -35 -35 -35 -35 -36 -36 -36 -36 -35 -35 -36 -36 -36 -36 -36 -36 -36 -36 -36 -36 -37 -38 -38 -39 -39 -39 -39 -39 -39 -38 -38 -37 -36 -36 -36
-32 -33 -33 -33 -33 -33 -33 -34 -34 -34 -34 -34 -34 -35 -35 -35 -35 -36 -36 -36 -36 -37 -37 -36 -36 -36 -36 -36 -36 -36 -36 -36 -37 -37 -36 -36 -36 -37 -37 -38 -38 -39 -40 -40 -41 -40 -40 -40 -39 -39 -38 -37 -36 -37
-33 -33 -33 -33 -33 -34 -34 -34 -34 -34 -35 -35 -35 -36 -36 -37 -37 -37 -37 -37 -37 -38 -38 -38 -37 -37 -37 -37 -37 -37 -37 -37 -37 -37 -37 -37 -37 -38 -38 -39 -40 -40 -41 -42 -42 -42 -42 -41 -40 -39 -38 -38 -37 -37
-33 -33 -33 -33 -34 -34 -34 -34 -35 -35 -36 -37 -37 -38 -38 -38 -38 -38 -39 -39 -39 -39 -38 -38 -38 -38 -38 -37 -37 -37 -37 -37 -37 -37 -37 -38 -38 -39 -39 -40 -41 -42 -42 -43 -43 -42 -42 -41 -40 -39 -38 -38 -37 -37
-33 -33 -33 -34 -34 -34 -34 -35 -36 -37 -37 -38 -38 -39 -39 -39 -40 -40 -39 -39 -39 -39 -39 -39 -38 -38 -38 -38 -38 -37 -37 -37 -38 -38 -38 -39 -40 -41 -41 -42 -42 -42 -42 -42 -42 -41 -41 -40 -40 -39 -39 -38 -38 -38

GFSWCAN_500_temp_234.txt.gz
Temp
-21 -23 -24 -25 -26 -27 -28 -29 -31 -33 -34 -34 -34 -33 -34 -35 -35 -35 -35 -35 -34 -33 -33 -33 -33 -33 -33 -33 -31 -31 -30 -30 -30 -30 -30 -29 -29 -29 -28 -27 -27 -27 -26 -25 -25 -24 -24 -22 -23 -22 -21 -21 -20 -20
-24 -25 -26 -27 -28 -30 -31 -33 -33 -34 -35 -35 -34 -34 -34 -35 -35 -35 -35 -35 -35 -34 -34 -34 -35 -34 -34 -34 -34 -33 -33 -33 -32 -32 -32 -31 -30 -30 -29 -28 -28 -27 -27 -26 -25 -25 -24 -24 -24 -23 -22 -22 -21 -21
-26 -27 -28 -29 -31 -33 -34 -34 -35 -35 -35 -35 -35 -35 -35 -35 -35 -35 -36 -36 -35 -34 -35 -35 -34 -34 -33 -34 -34 -34 -35 -34 -33 -33 -32 -32 -31 -31 -30 -29 -28 -28 -27 -27 -26 -25 -25 -25 -25 -24 -23 -23 -23 -22
-28 -28 -30 -31 -33 -34 -35 -35 -35 -35 -35 -35 -36 -35 -35 -35 -36 -36 -36 -36 -36 -35 -34 -34 -34 -34 -33 -34 -35 -35 -35 -35 -35 -35 -33 -32 -32 -31 -31 -29 -28 -28 -27 -27 -26 -25 -25 -26 -25 -25 -25 -24 -24 -23
-29 -30 -32 -33 -34 -35 -35 -36 -35 -35 -36 -36 -36 -36 -35 -36 -36 -36 -36 -36 -36 -35 -35 -35 -35 -35 -35 -35 -35 -36 -35 -35 -35 -35 -34 -34 -33 -32 -31 -30 -29 -29 -27 -27 -27 -26 -26 -26 -26 -25 -25 -25 -25 -24
-30 -31 -33 -34 -35 -35 -35 -35 -35 -35 -35 -36 -36 -36 -36 -36 -36 -36 -36 -36 -36 -36 -35 -36 -36 -36 -36 -36 -36 -36 -36 -35 -35 -35 -35 -35 -34 -33 -32 -31 -30 -29 -28 -28 -28 -27 -27 -26 -26 -25 -25 -25 -25 -24
-31 -32 -34 -35 -36 -36 -36 -36 -36 -36 -36 -36 -36 -36 -36 -36 -36 -37 -36 -36 -36 -36 -36 -36 -36 -36 -36 -36 -36 -36 -36 -35 -35 -35 -35 -35 -34 -34 -33 -32 -31 -30 -29 -28 -28 -27 -27 -27 -26 -25 -25 -25 -25 -25
-32 -33 -34 -35 -36 -36 -36 -36 -36 -36 -36 -37 -37 -37 -37 -37 -37 -37 -36 -36 -37 -37 -37 -37 -37 -37 -37 -36 -37 -36 -36 -36 -36 -35 -35 -35 -35 -35 -34 -33 -32 -31 -30 -30 -29 -29 -29 -28 -28 -26 -26 -26 -25 -25
-32 -33 -34 -35 -35 -36 -36 -36 -37 -37 -37 -37 -37 -37 -37 -37 -37 -37 -37 -37 -38 -38 -38 -37 -37 -37 -37 -37 -37 -36 -36 -36 -36 -35 -35 -35 -34 -35 -34 -34 -33 -32 -31 -31 -31 -30 -30 -29 -29 -28 -27 -27 -27 -26
-33 -34 -34 -34 -35 -35 -35 -36 -36 -36 -37 -37 -37 -37 -37 -37 -38 -38 -38 -38 -38 -38 -38 -38 -37 -37 -37 -36 -36 -36 -36 -36 -35 -35 -35 -35 -34 -34 -34 -34 -34 -34 -33 -32 -31 -30 -30 -30 -29 -29 -29 -28 -28 -27
-34 -34 -34 -35 -35 -35 -35 -35 -35 -36 -36 -37 -37 -37 -37 -38 -38 -38 -38 -38 -38 -38 -38 -37 -37 -37 -37 -36 -36 -37 -36 -35 -35 -35 -35 -34 -34 -34 -34 -34 -34 -34 -34 -34 -33 -32 -32 -31 -30 -30 -30 -29 -29 -29
-34 -35 -35 -35 -35 -35 -35 -35 -35 -35 -36 -36 -36 -37 -37 -37 -38 -38 -38 -38 -38 -38 -37 -37 -37 -37 -37 -37 -37 -37 -36 -35 -35 -35 -34 -34 -34 -34 -34 -34 -34 -34 -33 -33 -33 -34 -33 -32 -32 -31 -31 -30 -30 -30
-35 -35 -35 -35 -35 -36 -36 -35 -35 -35 -36 -36 -36 -36 -37 -37 -37 -37 -37 -37 -37 -37 -37 -37 -37 -37 -37 -37 -37 -37 -36 -35 -35 -35 -35 -34 -34 -35 -35 -35 -35 -34 -34 -34 -34 -33 -33 -33 -32 -31 -31 -31 -31 -30
-35 -35 -35 -36 -36 -36 -36 -36 -35 -35 -35 -36 -36 -36 -37 -37 -37 -37 -37 -37 -37 -37 -37 -37 -37 -37 -37 -37 -37 -37 -36 -36 -35 -35 -35 -35 -35 -36 -36 -36 -36 -35 -35 -35 -35 -34 -34 -34 -33 -33 -32 -32 -32 -32
-35 -35 -35 -36 -36 -36 -36 -36 -36 -35 -36 -36 -36 -36 -37 -37 -37 -37 -37 -37 -37 -37 -37 -37 -37 -37 -37 -37 -37 -37 -36 -36 -36 -35 -36 -36 -36 -36 -36 -36 -36 -36 -36 -36 -35 -35 -35 -34 -34 -34 -34 -33 -33 -32
-35 -35 -35 -35 -35 -35 -35 -35 -35 -36 -36 -36 -36 -36 -36 -36 -36 -37 -37 -37 -37 -37 -37 -36 -36 -36 -36 -36 -36 -36 -37 -37 -36 -36 -36 -36 -36 -36 -36 -36 -36 -35 -35 -35 -35 -35 -35 -35 -34 -34 -34 -34 -33 -33
-34 -35 -35 -35 -35 -35 -35 -35 -36 -36 -36 -36 -36 -36 -37 -37 -37 -37 -37 -37 -37 -37 -36 -36 -36 -36 -36 -36 -36 -36 -37 -37 -37 -36 -36 -36 -36 -36 -36 -36 -36 -35 -35 -35 -35 -35 -35 -34 -34 -34 -34 -33 -33 -33
-34 -34 -34 -34 -35 -35 -35 -35 -35 -35 -35 -35 -36 -36 -36 -36 -36 -37 -37 -37 -37 -37 -36 -36 -36 -37 -36 -36 -36 -36 -37 -37 -37 -37 -37 -37 -37 -36 -36 -36 -36 -36 -36 -35 -35 -35 -35 -34 -34 -34 -33 -33 -33 -33
-33 -34 -34 -34 -34 -34 -35 -35 -35 -35 -35 -35 -36 -36 -36 -36 -36 -36 -36 -36 -36 -36 -36 -36 -36 -36 -36 -36 -36 -36 -37 -37 -37 -37 -37 -36 -36 -36 -36 -36 -36 -36 -36 -36 -36 -35 -35 -35 -35 -35 -34 -34 -34 -34
-32 -33 -33 -33 -34 -34 -34 -34 -35 -35 -35 -35 -35 -35 -35 -36 -36 -36 -35 -35 -36 -35 -36 -36 -36 -36 -36 -36 -36 -36 -37 -37 -37 -37 -37 -37 -37 -37 -37 -37 -36 -36 -36 -36 -36 -36 -36 -36 -36 -35 -35 -35 -35 -35
-31 -31 -31 -32 -32 -32 -32 -33 -33 -33 -34 -34 -34 -34 -34 -35 -35 -35 -35 -35 -35 -35 -36 -36 -36 -36 -36 -36 -36 -36 -36 -36 -36 -37 -37 -37 -37 -37 -37 -37 -37 -37 -36 -36 -36 -36 -36 -36 -36 -36 -35 -35 -35 -35
-32 -32 -32 -32 -32 -32 -32 -32 -32 -33 -33 -33 -33 -33 -33 -34 -34 -34 -34 -34 -34 -35 -35 -35 -35 -35 -35 -35 -35 -35 -35 -36 -36 -36 -36 -36 -36 -36 -37 -37 -37 -37 -37 -36 -36 -36 -36 -36 -36 -36 -35 -35 -35 -35
-32 -32 -32 -33 -33 -33 -33 -33 -33 -33 -33 -33 -33 -33 -33 -33 -34 -34 -34 -34 -34 -34 -34 -34 -35 -35 -35 -35 -35 -35 -35 -35 -35 -36 -36 -36 -36 -36 -36 -36 -36 -36 -37 -37 -37 -37 -36 -36 -36 -36 -36 -35 -35 -35
-32 -32 -32 -33 -33 -33 -33 -34 -34 -34 -34 -34 -34 -34 -34 -34 -34 -34 -34 -34 -34 -35 -35 -35 -35 -35 -35 -35 -35 -35 -35 -35 -35 -36 -36 -36 -36 -36 -36 -36 -36 -36 -36 -36 -36 -37 -37 -37 -37 -36 -36 -36 -35 -35
-32 -32 -32 -33 -33 -33 -33 -33 -34 -34 -34 -34 -34 -34 -34 -34 -35 -35 -35 -35 -35 -35 -36 -36 -36 -36 -36 -36 -36 -36 -36 -36 -36 -36 -36 -36 -36 -36 -36 -36 -36 -36 -36 -36 -36 -36 -36 -37 -37 -37 -37 -37 -36 -36
-32 -32 -33 -33 -33 -33 -33 -34 -34 -34 -34 -34 -35 -35 -35 -35 -36 -36 -36 -36 -36 -37 -37 -37 -37 -37 -37 -37 -37 -37 -36 -36 -36 -36 -36 -36 -36 -37 -37 -36 -36 -36 -37 -37 -36 -36 -36 -37 -37 -37 -37 -37 -37 -37
-32 -33 -33 -33 -33 -33 -34 -34 -34 -34 -35 -35 -35 -36 -36 -37 -37 -37 -38 -38 -38 -38 -38 -38 -38 -38 -38 -38 -38 -38 -37 -37 -37 -37 -37 -37 -37 -37 -37 -37 -37 -37 -37 -37 -37 -37 -37 -37 -38 -38 -38 -38 -38 -37
-33 -33 -33 -33 -34 -34 -34 -34 -35 -35 -35 -36 -36 -37 -38 -38 -39 -39 -39 -39 -39 -39 -39 -39 -39 -39 -39 -39 -39 -39 -38 -38 -38 -38 -38 -38 -38 -38 -38 -37 -37 -37 -37 -37 -37 -37 -37 -38 -38 -38 -39 -39 -38 -38
-33 -33 -34 -34 -34 -34 -35 -35 -35 -36 -36 -37 -38 -38 -39 -39 -39 -40 -40 -40 -40 -40 -40 -40 -40 -40 -40 -39 -39 -39 -39 -39 -39 -39 -39 -38 -38 -38 -38 -38 -38 -38 -38 -38 -38 -39 -39 -39 -39 -39 -39 -39 -39 -38
-34 -34 -34 -34 -35 -35 -35 -35 -36 -37 -37 -38 -39 -39 -39 -39 -40 -40 -40 -40 -40 -40 -40 -40 -40 -40 -39 -39 -39 -39 -39 -39 -39 -39 -39 -39 -39 -39 -39 -39 -39 -40 -40 -40 -40 -41 -41 -41 -41 -41 -41 -40 -40 -39
-34 -35 -35 -35 -35 -36 -36 -37 -37 -38 -39 -39 -40 -40 -40 -40 -41 -41 -40 -40 -40 -40 -40 -40 -39 -39 -39 -39 -40 -40 -40 -39 -39 -40 -40 -40 -40 -40 -40 -41 -41 -41 -42 -42 -42 -42 -42 -42 -42 -42 -42 -41 -41 -40
-35 -35 -35 -36 -36 -36 -37 -38 -38 -39 -39 -40 -40 -40 -40 -40 -40 -40 -40 -40 -40 -39 -39 -39 -39 -40 -40 -40 -40 -40 -40 -40 -40 -40 -41 -41 -41 -42 -42 -42 -42 -42 -42 -42 -42 -42 -42 -42 -42 -42 -42 -41 -41 -40
-35 -36 -36 -36 -37 -38 -38 -39 -39 -39 -39 -39 -39 -39 -39 -39 -39 -39 -39 -39 -39 -39 -39 -39 -39 -40 -40 -40 -40 -40 -40 -40 -41 -41 -41 -41 -42 -42 -42 -42 -42 -42 -42 -42 -42 -42 -42 -42 -42 -42 -41 -41 -40 -40

GFSWCAN_500_temp_240.txt.gz
Temp
-21 -23 -25 -25 -26 -27 -28 -29 -30 -31 -32 -33 -34 -34 -35 -35 -35 -35 -35 -35 -35 -35 -35 -35 -36 -35 -35 -35 -35 -35 -35 -36 -36 -35 -35 -34 -33 -32 -31 -30 -30 -29 -29 -29 -29 -28 -28 -26 -26 -25 -24 -23 -23 -22
-24 -25 -26 -27 -28 -30 -30 -31 -31 -32 -33 -35 -35 -35 -35 -35 -35 -35 -35 -35 -35 -35 -36 -36 -36 -36 -35 -35 -35 -36 -36 -36 -36 -36 -35 -35 -35 -34 -33 -33 -32 -30 -30 -29 -30 -29 -28 -28 -28 -27 -26 -26 -25 -24
-25 -26 -28 -29 -31 -31 -31 -32 -32 -33 -35 -35 -35 -36 -36 -35 -35 -35 -35 -36 -35 -35 -36 -36 -36 -36 -35 -35 -35 -35 -35 -36 -36 -36 -36 -36 -35 -35 -34 -33 -32 -32 -32 -30 -30 -30 -29 -29 -28 -27 -27 -26 -26 -26
-26 -28 -30 -31 -32 -32 -32 -33 -33 -34 -35 -36 -36 -36 -36 -36 -36 -36 -36 -36 -36 -36 -36 -36 -36 -36 -36 -35 -35 -36 -36 -36 -37 -36 -36 -36 -36 -36 -35 -34 -33 -33 -32 -32 -31 -31 -30 -30 -29 -28 -27 -27 -26 -26
-28 -30 -32 -32 -33 -33 -33 -33 -34 -34 -34 -36 -36 -36 -36 -36 -36 -36 -36 -36 -36 -36 -36 -36 -36 -36 -36 -36 -36 -36 -36 -36 -36 -36 -36 -36 -36 -36 -36 -35 -34 -33 -33 -32 -31 -31 -31 -30 -29 -29 -28 -27 -26 -26
-30 -32 -32 -33 -33 -34 -34 -34 -34 -34 -34 -35 -36 -36 -36 -36 -36 -36 -36 -37 -37 -37 -36 -37 -37 -37 -37 -37 -37 -37 -36 -36 -36 -36 -36 -36 -36 -36 -36 -36 -35 -34 -34 -33 -32 -32 -31 -30 -30 -30 -29 -28 -27 -26
-31 -32 -33 -33 -34 -34 -35 -35 -35 -34 -34 -35 -36 -37 -37 -37 -37 -37 -37 -37 -37 -37 -37 -37 -37 -38 -37 -37 -37 -37 -36 -36 -36 -36 -36 -36 -36 -36 -36 -35 -36 -35 -34 -34 -33 -32 -32 -31 -30 -30 -29 -29 -28 -27
-32 -33 -33 -33 -34 -34 -35 -35 -35 -35 -35 -35 -35 -36 -37 -37 -37 -37 -37 -37 -38 -38 -38 -38 -38 -38 -38 -37 -37 -37 -37 -37 -37 -36 -36 -36 -36 -36 -36 -36 -35 -35 -35 -34 -34 -33 -33 -32 -31 -30 -29 -29 -28 -27
-33 -33 -33 -34 -34 -34 -35 -35 -35 -35 -35 -35 -35 -36 -36 -37 -37 -37 -38 -38 -38 -38 -38 -38 -38 -38 -38 -37 -37 -37 -37 -37 -37 -36 -36 -36 -36 -36 -35 -35 -35 -35 -35 -35 -34 -34 -33 -32 -32 -31 -30 -29 -29 -28
-33 -33 -33 -34 -34 -34 -34 -35 -35 -35 -35 -35 -35 -36 -36 -37 -37 -38 -38 -38 -38 -38 -38 -38 -38 -38 -38 -37 -37 -37 -37 -37 -36 -36 -36 -36 -36 -36 -35 -35 -35 -35 -35 -35 -35 -34 -33 -32 -31 -31 -30 -30 -29 -29
-33 -33 -33 -34 -34 -34 -34 -34 -34 -35 -35 -35 -35 -36 -36 -36 -37 -37 -37 -38 -38 -38 -38 -38 -38 -38 -38 -38 -38 -37 -37 -37 -36 -36 -36 -36 -36 -36 -35 -35 -35 -35 -35 -35 -35 -35 -34 -33 -32 -32 -31 -31 -30 -29
-32 -33 -33 -33 -34 -34 -34 -34 -34 -35 -35 -35 -35 -35 -36 -36 -37 -37 -37 -37 -37 -37 -38 -38 -38 -38 -38 -38 -38 -38 -37 -37 -37 -36 -36 -36 -36 -35 -35 -35 -35 -35 -35 -35 -35 -35 -35 -34 -33 -32 -32 -31 -30 -30
-31 -32 -33 -33 -33 -33 -34 -34 -34 -34 -35 -35 -35 -36 -36 -36 -36 -37 -37 -37 -37 -37 -37 -37 -37 -38 -38 -38 -38 -37 -37 -37 -37 -37 -36 -36 -36 -36 -36 -36 -36 -36 -36 -35 -35 -35 -35 -35 -35 -34 -34 -32 -31 -30
-31 -31 -31 -32 -32 -33 -33 -34 -34 -34 -34 -34 -35 -35 -36 -36 -36 -37 -37 -37 -37 -37 -37 -37 -37 -37 -37 -37 -37 -38 -37 -37 -37 -37 -36 -36 -36 -35 -36 -36 -36 -36 -36 -36 -36 -35 -35 -35 -35 -35 -34 -34 -33 -32
-31 -31 -31 -31 -31 -32 -32 -33 -33 -34 -34 -35 -35 -35 -35 -36 -36 -36 -36 -36 -36 -37 -37 -37 -37 -37 -37 -37 -37 -37 -37 -37 -37 -37 -37 -36 -36 -36 -36 -36 -36 -36 -36 -36 -36 -36 -36 -36 -35 -35 -34 -34 -34 -34
-31 -31 -32 -32 -32 -32 -32 -32 -32 -32 -33 -33 -34 -34 -35 -35 -36 -36 -36 -36 -36 -36 -36 -37 -37 -37 -37 -37 -37 -37 -37 -37 -37 -37 -37 -37 -37 -36 -36 -36 -36 -36 -36 -36 -36 -36 -36 -35 -35 -35 -35 -35 -34 -34
-31 -32 -32 -32 -32 -32 -33 -33 -33 -33 -33 -33 -33 -33 -33 -34 -34 -35 -35 -35 -35 -36 -36 -36 -36 -36 -36 -37 -37 -37 -37 -37 -37 -37 -37 -37 -37 -37 -37 -37 -37 -36 -36 -36 -36 -36 -35 -35 -35 -35 -35 -35 -34 -34
-31 -32 -32 -32 -32 -32 -33 -33 -33 -33 -33 -33 -33 -33 -33 -34 -34 -34 -34 -34 -34 -35 -35 -36 -36 -36 -36 -36 -37 -37 -37 -37 -37 -37 -37 -37 -37 -37 -37 -37 -37 -37 -37 -37 -36 -36 -36 -36 -35 -35 -35 -35 -34 -34
-32 -32 -32 -32 -32 -33 -33 -33 -33 -33 -34 -34 -34 -34 -34 -34 -34 -34 -34 -34 -34 -35 -35 -35 -35 -35 -36 -36 -36 -36 -36 -36 -37 -37 -37 -37 -37 -37 -37 -37 -37 -37 -37 -37 -37 -37 -36 -36 -36 -36 -35 -35 -35 -34
-32 -32 -32 -32 -33 -33 -33 -33 -33 -33 -34 -34 -34 -34 -34 -34 -35 -35 -35 -35 -35 -35 -34 -35 -35 -35 -35 -35 -36 -36 -36 -36 -36 -36 -36 -37 -37 -37 -37 -37 -37 -37 -37 -37 -37 -37 -37 -37 -36 -36 -36 -36 -36 -36
-32 -32 -32 -33 -33 -33 -33 -33 -33 -34 -34 -34 -34 -35 -35 -35 -35 -35 -35 -35 -35 -35 -35 -35 -35 -35 -36 -36 -36 -36 -36 -36 -36 -36 -36 -36 -36 -36 -36 -36 -36 -36 -36 -37 -37 -37 -37 -37 -37 -36 -36 -36 -36 -36
-32 -32 -33 -33 -33 -33 -33 -33 -34 -34 -34 -35 -35 -35 -35 -35 -35 -35 -36 -36 -36 -36 -36 -36 -36 -36 -36 -36 -36 -36 -36 -37 -37 -37 -36 -36 -36 -36 -36 -36 -36 -36 -36 -36 -37 -36 -36 -37 -37 -37 -36 -36 -36 -36
-33 -33 -33 -33 -33 -33 -34 -34 -34 -35 -35 -35 -35 -35 -36 -36 -36 -36 -37 -37 -37 -37 -38 -38 -38 -38 -38 -38 -38 -37 -37 -37 -37 -37 -37 -37 -37 -37 -37 -36 -37 -37 -37 -37 -37 -37 -37 -37 -36 -36 -36 -36 -36 -36
-33 -33 -33 -34 -34 -34 -34 -35 -35 -35 -35 -36 -36 -36 -36 -36 -37 -38 -38 -39 -39 -39 -39 -39 -39 -39 -39 -39 -39 -38 -38 -38 -38 -38 -38 -38 -38 -37 -37 -37 -37 -37 -37 -37 -37 -37 -37 -37 -37 -37 -37 -36 -36 -36
-33 -34 -34 -34 -35 -35 -35 -35 -36 -36 -36 -36 -36 -37 -37 -38 -39 -39 -40 -40 -40 -40 -40 -40 -40 -40 -40 -39 -39 -39 -39 -39 -39 -39 -38 -38 -38 -38 -38 -38 -38 -38 -38 -38 -37 -37 -37 -37 -37 -37 -37 -37 -37 -36
-34 -35 -35 -35 -35 -36 -36 -36 -36 -36 -37 -37 -38 -38 -39 -39 -39 -40 -40 -41 -41 -41 -41 -41 -40 -40 -40 -40 -40 -40 -40 -40 -40 -40 -40 -40 -40 -39 -39 -39 -39 -39 -39 -39 -38 -38 -38 -38 -37 -37 -37 -37 -37 -37
-35 -36 -36 -36 -36 -36 -37 -37 -37 -37 -38 -39 -39 -39 -40 -40 -40 -40 -41 -41 -41 -41 -41 -41 -41 -41 -41 -40 -40 -40 -40 -40 -40 -40 -40 -40 -40 -40 -40 -40 -40 -40 -39 -39 -39 -39 -39 -38 -38 -38 -38 -37 -37 -37
-36 -36 -37 -37 -37 -37 -37 -38 -38 -38 -39 -39 -39 -39 -40 -40 -40 -40 -40 -40 -40 -40 -40 -40 -40 -40 -40 -40 -40 -40 -40 -40 -40 -40 -40 -40 -40 -40 -40 -40 -40 -40 -40 -40 -39 -39 -39 -39 -39 -38 -38 -38 -38 -38
-37 -37 -37 -38 -38 -38 -38 -38 -39 -39 -39 -39 -39 -39 -39 -39 -39 -39 -40 -40 -40 -40 -40 -40 -40 -40 -40 -40 -40 -40 -40 -40 -40 -40 -40 -40 -41 -41 -41 -41 -41 -41 -41 -41 -41 -41 -41 -40 -40 -40 -40 -39 -39 -39
-37 -38 -38 -38 -38 -38 -38 -38 -39 -39 -39 -39 -39 -39 -39 -39 -40 -40 -40 -40 -40 -40 -40 -40 -40 -40 -40 -40 -40 -40 -40 -40 -41 -41 -41 -41 -41 -41 -42 -42 -42 -42 -42 -42 -42 -42 -42 -42 -42 -42 -41 -41 -41 -40
-36 -36 -37 -37 -37 -37 -38 -38 -38 -38 -38 -38 -38 -39 -39 -40 -40 -40 -40 -40 -40 -40 -40 -40 -40 -40 -40 -40 -40 -40 -40 -40 -41 -41 -41 -42 -41 -41 -41 -41 -41 -41 -41 -42 -42 -42 -42 -42 -42 -42 -42 -42 -42 -42
-35 -35 -36 -36 -36 -37 -37 -37 -37 -38 -38 -38 -39 -39 -39 -39 -39 -39 -40 -40 -40 -40 -40 -40 -40 -40 -40 -40 -40 -41 -41 -41 -41 -41 -41 -41 -42 -42 -42 -42 -42 -42 -42 -42 -42 -42 -42 -42 -42 -42 -42 -42 -42 -42
-36 -36 -36 -36 -37 -37 -37 -37 -38 -38 -39 -39 -39 -39 -39 -39 -39 -40 -40 -40 -40 -40 -40 -40 -40 -40 -41 -41 -41 -41 -41 -41 -41 -41 -41 -41 -41 -41 -41 -41 -41 -41 -41 -42 -42 -42 -42 -42 -42 -42 -42 -42 -42 -42

GFSWCAN_500_temp_243.txt.gz
Temp
-23 -25 -26 -26 -26 -27 -29 -30 -31 -32 -32 -32 -33 -33 -35 -35 -35 -35 -35 -35 -35 -35 -35 -36 -36 -36 -35 -35 -36 -35 -35 -35 -35 -35 -35 -35 -35 -34 -34 -33 -32 -31 -31 -31 -30 -29 -29 -28 -28 -28 -27 -26 -25 -24
-26 -26 -26 -27 -28 -30 -31 -32 -33 -33 -33 -33 -33 -34 -35 -35 -35 -35 -35 -35 -35 -36 -36 -35 -36 -36 -35 -36 -36 -35 -35 -35 -36 -36 -35 -35 -35 -35 -34 -34 -34 -33 -33 -32 -31 -30 -29 -29 -28 -28 -27 -27 -26 -25
-26 -27 -28 -29 -31 -32 -32 -33 -33 -33 -33 -34 -34 -35 -36 -36 -36 -36 -36 -36 -36 -36 -36 -36 -36 -36 -36 -36 -36 -35 -36 -36 -36 -36 -36 -36 -36 -36 -35 -35 -34 -34 -34 -33 -32 -31 -31 -30 -29 -28 -28 -28 -28 -27
-27 -28 -29 -31 -32 -32 -32 -33 -34 -34 -34 -34 -34 -35 -36 -36 -36 -36 -36 -36 -36 -36 -36 -36 -36 -36 -36 -36 -36 -36 -36 -37 -37 -36 -36 -36 -36 -36 -36 -36 -35 -34 -34 -34 -33 -32 -31 -31 -30 -29 -29 -28 -28 -27
-28 -29 -31 -32 -32 -32 -33 -33 -34 -34 -34 -34 -34 -35 -36 -36 -36 -36 -36 -36 -36 -36 -36 -36 -36 -36 -36 -36 -36 -37 -37 -37 -37 -37 -37 -36 -36 -36 -36 -36 -36 -35 -34 -34 -33 -33 -33 -32 -31 -30 -29 -29 -28 -28
-29 -30 -32 -32 -32 -33 -33 -33 -34 -34 -34 -34 -34 -35 -35 -36 -36 -36 -37 -37 -37 -37 -37 -37 -37 -37 -37 -37 -37 -37 -37 -37 -37 -36 -36 -37 -36 -36 -36 -36 -36 -35 -35 -35 -34 -33 -33 -32 -32 -31 -31 -30 -30 -29
-29 -31 -32 -32 -33 -33 -33 -33 -34 -34 -34 -34 -34 -35 -35 -36 -37 -37 -37 -37 -37 -37 -38 -38 -38 -38 -38 -38 -37 -37 -37 -37 -37 -36 -37 -36 -36 -36 -36 -36 -36 -36 -36 -35 -35 -33 -33 -33 -32 -32 -31 -31 -30 -30
-29 -31 -32 -32 -32 -33 -33 -33 -34 -34 -34 -34 -34 -35 -35 -36 -37 -37 -37 -38 -38 -38 -38 -38 -38 -38 -38 -38 -38 -37 -37 -37 -37 -37 -37 -36 -36 -36 -36 -36 -36 -36 -36 -35 -35 -34 -34 -33 -33 -32 -32 -32 -31 -30
-29 -30 -31 -32 -32 -33 -33 -33 -33 -34 -34 -34 -34 -35 -35 -36 -36 -37 -38 -38 -38 -38 -38 -38 -38 -38 -38 -38 -38 -38 -37 -37 -37 -37 -37 -36 -36 -36 -36 -36 -36 -35 -35 -36 -35 -35 -34 -33 -33 -33 -32 -32 -31 -30
-30 -30 -30 -31 -32 -32 -33 -33 -33 -34 -34 -34 -35 -35 -35 -36 -36 -37 -37 -37 -38 -38 -38 -38 -38 -38 -38 -38 -38 -38 -37 -37 -37 -37 -36 -36 -36 -36 -36 -36 -36 -35 -35 -35 -35 -35 -35 -35 -33 -32 -32 -31 -31 -30
-30 -31 -31 -31 -31 -31 -32 -33 -33 -33 -34 -34 -35 -35 -35 -36 -36 -36 -37 -37 -37 -37 -38 -38 -38 -38 -38 -38 -38 -38 -38 -37 -37 -37 -36 -36 -36 -36 -36 -36 -36 -35 -35 -35 -35 -35 -35 -35 -34 -34 -32 -32 -31 -30
-30 -31 -31 -32 -32 -32 -31 -32 -33 -33 -34 -34 -34 -35 -35 -36 -36 -36 -36 -37 -37 -37 -37 -37 -38 -38 -38 -38 -38 -38 -38 -37 -37 -37 -36 -36 -36 -36 -35 -35 -35 -35 -35 -35 -35 -35 -35 -35 -35 -34 -33 -32 -32 -31
-31 -31 -31 -32 -32 -32 -32 -32 -32 -33 -33 -34 -34 -35 -35 -35 -36 -36 -36 -36 -36 -37 -37 -37 -37 -37 -38 -38 -38 -38 -37 -37 -37 -37 -36 -36 -36 -36 -36 -36 -36 -36 -35 -35 -35 -35 -35 -35 -35 -34 -34 -33 -33 -32
-31 -31 -31 -32 -32 -32 -33 -33 -33 -33 -33 -33 -33 -34 -35 -35 -36 -36 -36 -36 -36 -36 -36 -37 -37 -37 -37 -37 -37 -37 -37 -37 -37 -37 -37 -37 -36 -36 -36 -36 -36 -36 -36 -36 -36 -36 -36 -35 -35 -35 -35 -34 -34 -33
-31 -31 -32 -32 -32 -32 -32 -33 -33 -33 -33 -33 -33 -33 -33 -34 -34 -35 -35 -36 -36 -36 -36 -36 -36 -37 -37 -37 -37 -37 -37 -37 -37 -37 -37 -37 -37 -36 -36 -36 -36 -36 -36 -36 -36 -36 -36 -36 -36 -35 -35 -35 -34 -34
-31 -32 -32 -32 -32 -32 -33 -33 -33 -33 -33 -34 -34 -34 -34 -34 -34 -34 -34 -34 -35 -35 -36 -36 -36 -36 -37 -37 -37 -37 -37 -37 -37 -37 -37 -37 -37 -37 -37 -37 -36 -36 -36 -36 -36 -36 -36 -36 -36 -35 -35 -35 -35 -35
-31 -32 -32 -32 -32 -33 -33 -33 -33 -33 -33 -34 -34 -34 -34 -34 -34 -34 -34 -34 -34 -34 -35 -35 -35 -36 -36 -36 -37 -37 -37 -37 -37 -37 -37 -37 -37 -37 -37 -37 -37 -37 -37 -36 -36 -36 -36 -36 -36 -35 -35 -35 -35 -35
-32 -32 -32 -32 -32 -32 -33 -33 -33 -33 -33 -34 -34 -34 -34 -34 -35 -35 -35 -35 -35 -35 -35 -35 -35 -35 -36 -36 -36 -37 -37 -37 -37 -37 -37 -37 -37 -37 -37 -37 -37 -37 -37 -37 -37 -36 -36 -36 -36 -35 -35 -35 -35 -35
-32 -32 -32 -32 -32 -33 -33 -33 -33 -34 -34 -34 -34 -34 -35 -35 -35 -35 -35 -35 -35 -35 -35 -35 -35 -35 -35 -35 -35 -36 -36 -36 -36 -37 -37 -37 -37 -37 -37 -37 -37 -37 -37 -37 -37 -37 -37 -36 -36 -36 -36 -36 -35 -35
-32 -32 -33 -33 -33 -33 -33 -33 -34 -34 -34 -34 -35 -35 -35 -35 -35 -35 -35 -36 -36 -36 -36 -36 -36 -36 -36 -36 -36 -36 -36 -36 -36 -36 -36 -36 -36 -37 -37 -37 -37 -37 -37 -37 -37 -37 -37 -37 -37 -37 -36 -36 -36 -36
-32 -33 -33 -33 -33 -33 -34 -34 -34 -34 -35 -35 -35 -35 -36 -36 -36 -36 -36 -36 -36 -36 -37 -37 -37 -37 -37 -37 -37 -37 -37 -37 -37 -36 -36 -37 -37 -37 -37 -37 -37 -37 -37 -37 -37 -37 -37 -37 -37 -37 -37 -37 -36 -36
-33 -33 -33 -34 -34 -34 -35 -35 -35 -35 -36 -36 -36 -36 -36 -36 -37 -37 -37 -37 -38 -38 -38 -38 -38 -38 -38 -38 -38 -38 -38 -38 -38 -37 -37 -37 -37 -37 -37 -37 -37 -37 -37 -37 -37 -37 -37 -37 -37 -37 -37 -37 -37 -36
-33 -33 -34 -34 -35 -35 -35 -36 -36 -36 -36 -36 -37 -37 -37 -37 -38 -38 -39 -39 -39 -39 -39 -39 -39 -39 -39 -39 -39 -39 -39 -39 -39 -39 -38 -38 -38 -38 -37 -37 -37 -37 -37 -37 -37 -37 -37 -37 -37 -37 -37 -37 -36 -36
-34 -35 -35 -36 -36 -36 -36 -36 -37 -37 -37 -37 -37 -38 -38 -39 -39 -39 -40 -40 -40 -40 -40 -40 -40 -40 -40 -40 -40 -40 -39 -39 -39 -39 -39 -39 -39 -39 -38 -38 -38 -38 -38 -37 -37 -37 -37 -37 -37 -37 -37 -37 -37 -36
-35 -36 -36 -37 -37 -37 -37 -37 -37 -38 -38 -38 -39 -39 -39 -39 -40 -40 -40 -41 -41 -41 -41 -41 -41 -41 -41 -40 -40 -40 -40 -40 -40 -40 -40 -39 -39 -39 -39 -39 -39 -39 -39 -39 -38 -38 -38 -38 -38 -37 -37 -37 -37 -37
-36 -37 -37 -38 -38 -38 -38 -38 -38 -38 -39 -39 -39 -39 -39 -39 -40 -40 -40 -41 -41 -41 -41 -41 -41 -41 -41 -41 -41 -40 -40 -40 -40 -40 -40 -40 -40 -40 -40 -40 -40 -40 -40 -40 -40 -39 -39 -39 -39 -38 -38 -38 -38 -37
-35 -36 -37 -38 -38 -38 -38 -38 -38 -39 -39 -39 -39 -39 -39 -39 -39 -40 -40 -40 -40 -40 -41 -41 -41 -41 -40 -40 -40 -40 -40 -40 -40 -40 -40 -40 -40 -40 -40 -40 -40 -40 -40 -40 -40 -40 -40 -39 -39 -39 -39 -39 -38 -38
-34 -35 -35 -36 -37 -37 -37 -38 -38 -38 -39 -39 -39 -39 -39 -39 -39 -40 -40 -40 -40 -40 -40 -40 -40 -40 -40 -40 -40 -40 -40 -40 -40 -41 -41 -41 -41 -41 -41 -41 -41 -41 -41 -41 -41 -41 -40 -40 -40 -39 -39 -39 -39 -39
-35 -35 -35 -36 -36 -36 -37 -37 -38 -38 -38 -39 -39 -39 -39 -39 -40 -40 -40 -40 -40 -40 -40 -40 -40 -40 -40 -40 -40 -40 -40 -40 -40 -41 -41 -41 -41 -41 -41 -42 -42 -42 -42 -42 -42 -42 -42 -42 -41 -41 -40 -40 -40 -39
-35 -35 -36 -36 -36 -37 -37 -38 -38 -38 -39 -39 -39 -39 -40 -39 -40 -40 -40 -40 -40 -40 -40 -40 -40 -40 -40 -40 -40 -40 -40 -41 -41 -41 -41 -41 -41 -41 -41 -41 -42 -42 -42 -42 -42 -42 -42 -42 -42 -42 -42 -41 -41 -41
-35 -35 -36 -36 -37 -37 -38 -38 -38 -39 -39 -39 -39 -39 -39 -39 -40 -40 -40 -40 -40 -40 -40 -40 -40 -40 -40 -40 -41 -41 -41 -41 -41 -41 -41 -42 -42 -41 -41 -41 -41 -42 -42 -42 -42 -42 -42 -42 -42 -42 -42 -42 -42 -42
-35 -35 -36 -36 -36 -37 -37 -38 -38 -38 -39 -39 -39 -39 -39 -40 -40 -40 -40 -40 -40 -40 -41 -41 -41 -41 -41 -41 -41 -41 -42 -42 -42 -42 -42 -42 -42 -42 -42 -41 -41 -42 -42 -42 -42 -42 -42 -43 -43 -43 -42 -42 -42 -42
-35 -36 -36 -36 -36 -36 -37 -37 -38 -38 -38 -38 -39 -39 -39 -40 -40 -40 -40 -40 -40 -40 -41 -41 -41 -41 -42 -42 -42 -42 -42 -42 -42 -42 -42 -42 -42 -41 -41 -41 -41 -41 -42 -42 -42 -42 -42 -42 -42 -42 -43 -42 -42 -42